When you browse on this site, cookies collect data to enhance your experience and personalize the content and advertising you see.
Visit our Privacy Policy to learn more. By continuing to use the site, you agree to this use of cookies and data.
  • In United Kingdom
  • List of Countries
  • For 7 days
  • Water Temperature
  • Weather Map
  • Weather Widgets
  • user-avatar
    Login

    Hourly Weather Warwick

    Today, 21 October, Monday

    Time Temperature Precipitation Wind Pressure Humidity
    00:00 +8°C° 0 mm 5 mps 757 mmHg 90%
    01:00 +8°C° 0 mm 5 mps 757 mmHg 89%
    02:00 +8°C° 0 mm 5 mps 757 mmHg 88%
    03:00 +9°C° 0 mm 5 mps 757 mmHg 87%
    04:00 +9°C° 0 mm 5 mps 758 mmHg 87%
    05:00 +9°C° 0 mm 5 mps 758 mmHg 87%
    06:00 +9°C° 0 mm 5 mps 759 mmHg 87%
    07:00 +9°C° 0.1 mm 5 mps 759 mmHg 86%
    08:00 +9°C° 0.1 mm 5 mps 759 mmHg 85%
    09:00 +9°C° 0.1 mm 5 mps 759 mmHg 85%
    10:00 +10°C° 0 mm 5 mps 759 mmHg 81%
    11:00 +10°C° 0 mm 5 mps 760 mmHg 78%
    12:00 +12°C° 0 mm 5 mps 760 mmHg 74%
    13:00 +12°C° 0 mm 5 mps 760 mmHg 74%
    14:00 +12°C° 0 mm 4 mps 760 mmHg 73%
    15:00 +12°C° 0 mm 4 mps 760 mmHg 73%
    16:00 +11°C° 0 mm 3 mps 760 mmHg 76%
    17:00 +10°C° 0 mm 3 mps 760 mmHg 78%
    18:00 +9°C° 0 mm 2 mps 761 mmHg 81%
    19:00 +9°C° 0 mm 2 mps 761 mmHg 81%
    20:00 +10°C° 0 mm 1 mps 761 mmHg 81%
    21:00 +10°C° 0 mm 1 mps 762 mmHg 81%
    22:00 +9°C° 0 mm 1 mps 762 mmHg 81%
    23:00 +9°C° 0 mm 1 mps 762 mmHg 82%

    Tomorrow, 22 October, Tuesday

    Time Temperature Precipitation Wind Pressure Humidity
    00:00 +8°C° 0 mm 1 mps 762 mmHg 82%
    01:00 +8°C° 0 mm 1 mps 762 mmHg 84%
    02:00 +7°C° 0 mm 1 mps 762 mmHg 85%
    03:00 +7°C° 0 mm 1 mps 761 mmHg 86%
    04:00 +7°C° 0 mm 1 mps 762 mmHg 86%
    05:00 +6°C° 0 mm 2 mps 762 mmHg 87%
    06:00 +5°C° 0 mm 2 mps 762 mmHg 87%
    07:00 +6°C° 0 mm 2 mps 762 mmHg 85%
    08:00 +7°C° 0 mm 2 mps 762 mmHg 83%
    09:00 +8°C° 0 mm 2 mps 762 mmHg 81%
    10:00 +9°C° 0 mm 3 mps 762 mmHg 79%
    11:00 +10°C° 0 mm 3 mps 762 mmHg 76%
    12:00 +11°C° 0 mm 3 mps 762 mmHg 73%
    13:00 +11°C° 0 mm 3 mps 762 mmHg 73%
    14:00 +11°C° 0 mm 3 mps 761 mmHg 74%
    15:00 +12°C° 0 mm 3 mps 761 mmHg 74%
    16:00 +11°C° 0 mm 3 mps 761 mmHg 79%
    17:00 +9°C° 0 mm 2 mps 761 mmHg 83%
    18:00 +8°C° 0 mm 2 mps 761 mmHg 88%
    19:00 +8°C° 0 mm 2 mps 761 mmHg 89%
    20:00 +7°C° 0 mm 2 mps 761 mmHg 90%
    21:00 +8°C° 0 mm 1 mps 761 mmHg 90%
    22:00 +8°C° 0 mm 1 mps 760 mmHg 91%
    23:00 +8°C° 0 mm 1 mps 760 mmHg 91%

    Day after tomorrow, 23 October, Wednesday

    Time Temperature Precipitation Wind Pressure Humidity
    00:00 +7°C° 0 mm 1 mps 760 mmHg 92%
    01:00 +7°C° 0 mm 1 mps 759 mmHg 92%
    02:00 +7°C° 0 mm 1 mps 759 mmHg 92%
    03:00 +7°C° 0 mm 1 mps 758 mmHg 92%
    04:00 +7°C° 0 mm 1 mps 758 mmHg 93%
    05:00 +6°C° 0 mm 2 mps 757 mmHg 93%
    06:00 +6°C° 0 mm 2 mps 757 mmHg 94%
    07:00 +7°C° 0 mm 2 mps 756 mmHg 92%
    08:00 +8°C° 0 mm 2 mps 756 mmHg 91%
    09:00 +9°C° 0 mm 2 mps 755 mmHg 89%
    10:00 +10°C° 0 mm 3 mps 755 mmHg 88%
    11:00 +10°C° 0 mm 3 mps 755 mmHg 87%
    12:00 +11°C° 0 mm 3 mps 754 mmHg 86%
    13:00 +11°C° 0 mm 3 mps 753 mmHg 87%
    14:00 +11°C° 0 mm 3 mps 753 mmHg 88%
    15:00 +10°C° 0 mm 2 mps 752 mmHg 89%
    16:00 +10°C° 0.4 mm 2 mps 751 mmHg 92%
    17:00 +10°C° 0.4 mm 2 mps 751 mmHg 94%
    18:00 +10°C° 0.4 mm 1 mps 750 mmHg 96%
    19:00 +10°C° 0.4 mm 1 mps 750 mmHg 96%
    20:00 +11°C° 0.4 mm 1 mps 750 mmHg 97%
    21:00 +11°C° 0.4 mm 1 mps 750 mmHg 97%
    22:00 +11°C° 0.5 mm 1 mps 749 mmHg 97%
    23:00 +11°C° 0.5 mm 1 mps 749 mmHg 96%

    24 October, Thursday

    Time Temperature Precipitation Wind Pressure Humidity
    00:00 +11°C° 0.5 mm 1 mps 748 mmHg 96%
    01:00 +11°C° 0 mm 1 mps 748 mmHg 96%
    02:00 +10°C° 0 mm 1 mps 748 mmHg 96%
    03:00 +10°C° 0 mm 1 mps 748 mmHg 96%
    04:00 +9°C° 0 mm 2 mps 748 mmHg 95%
    05:00 +10°C° 0 mm 2 mps 747 mmHg 94%
    06:00 +10°C° 0 mm 2 mps 747 mmHg 94%
    07:00 +10°C° 0 mm 2 mps 747 mmHg 92%
    08:00 +10°C° 0 mm 2 mps 747 mmHg 89%
    09:00 +11°C° 0 mm 3 mps 747 mmHg 87%
    10:00 +11°C° 0 mm 3 mps 747 mmHg 87%
    11:00 +11°C° 0 mm 3 mps 747 mmHg 86%
    12:00 +11°C° 0 mm 3 mps 748 mmHg 86%
    13:00 +11°C° 0.5 mm 3 mps 748 mmHg 86%
    14:00 +11°C° 0.5 mm 3 mps 748 mmHg 87%
    15:00 +11°C° 0.5 mm 3 mps 747 mmHg 87%
    16:00 +11°C° 0 mm 4 mps 748 mmHg 87%
    17:00 +10°C° 0 mm 4 mps 748 mmHg 86%
    18:00 +9°C° 0 mm 5 mps 748 mmHg 86%
    19:00 +8°C° 0 mm 5 mps 749 mmHg 85%
    20:00 +8°C° 0 mm 5 mps 750 mmHg 84%
    21:00 +7°C° 0 mm 5 mps 750 mmHg 83%
    22:00 +7°C° 0 mm 5 mps 751 mmHg 83%
    23:00 +7°C° 0 mm 5 mps 751 mmHg 82%

    25 October, Friday

    Time Temperature Precipitation Wind Pressure Humidity
    00:00 +7°C° 0 mm 6 mps 752 mmHg 82%
    01:00 +7°C° 0 mm 6 mps 752 mmHg 80%
    02:00 +6°C° 0 mm 5 mps 753 mmHg 78%
    03:00 +6°C° 0 mm 5 mps 753 mmHg 76%
    04:00 +6°C° 0 mm 5 mps 754 mmHg 77%
    05:00 +5°C° 0 mm 5 mps 755 mmHg 78%
    06:00 +5°C° 0 mm 4 mps 755 mmHg 78%
    07:00 +5°C° 0 mm 4 mps 756 mmHg 78%
    08:00 +7°C° 0 mm 3 mps 756 mmHg 77%
    09:00 +8°C° 0 mm 3 mps 756 mmHg 76%
    10:00 +8°C° 0.2 mm 3 mps 756 mmHg 79%
    11:00 +8°C° 0.2 mm 3 mps 755 mmHg 81%
    12:00 +8°C° 0.2 mm 3 mps 755 mmHg 83%
    13:00 +8°C° 1.1 mm 5 mps 753 mmHg 87%
    14:00 +10°C° 1.1 mm 7 mps 752 mmHg 90%
    15:00 +11°C° 1.1 mm 9 mps 750 mmHg 93%
    16:00 +12°C° 0.7 mm 10 mps 749 mmHg 90%
    17:00 +13°C° 0.7 mm 12 mps 747 mmHg 88%
    18:00 +14°C° 0.7 mm 13 mps 745 mmHg 85%
    19:00 +14°C° 0.7 mm 13 mps 746 mmHg 86%
    20:00 +14°C° 0.7 mm 13 mps 746 mmHg 86%
    21:00 +14°C° 0.7 mm 13 mps 747 mmHg 87%
    22:00 +12°C° 0.8 mm 11 mps 748 mmHg 86%
    23:00 +8°C° 0.8 mm 9 mps 749 mmHg 86%

    26 October, Saturday

    Time Temperature Precipitation Wind Pressure Humidity
    00:00 +7°C° 0.8 mm 6 mps 751 mmHg 85%
    01:00 +6°C° 0 mm 5 mps 752 mmHg 85%
    02:00 +5°C° 0 mm 4 mps 753 mmHg 84%
    03:00 +4°C° 0 mm 3 mps 754 mmHg 83%
    04:00 +4°C° 0 mm 3 mps 755 mmHg 84%
    05:00 +4°C° 0 mm 2 mps 756 mmHg 84%
    06:00 +4°C° 0 mm 2 mps 757 mmHg 84%
    07:00 +5°C° 0 mm 2 mps 758 mmHg 81%
    08:00 +5°C° 0 mm 2 mps 758 mmHg 78%
    09:00 +6°C° 0 mm 2 mps 759 mmHg 76%
    10:00 +6°C° 0 mm 2 mps 759 mmHg 73%
    11:00 +7°C° 0 mm 2 mps 760 mmHg 70%
    12:00 +8°C° 0 mm 2 mps 760 mmHg 67%
    13:00 +8°C° 0 mm 2 mps 760 mmHg 69%
    14:00 +7°C° 0 mm 2 mps 760 mmHg 70%
    15:00 +7°C° 0 mm 2 mps 760 mmHg 72%
    16:00 +8°C° 0 mm 1 mps 760 mmHg 76%
    17:00 +8°C° 0 mm 1 mps 760 mmHg 80%
    18:00 +7°C° 0 mm 1 mps 760 mmHg 84%
    19:00 +7°C° 0.2 mm 1 mps 760 mmHg 86%
    20:00 +7°C° 0.2 mm 1 mps 761 mmHg 87%
    21:00 +7°C° 0.2 mm 1 mps 761 mmHg 89%
    22:00 +6°C° 0.4 mm 1 mps 761 mmHg 90%
    23:00 +5°C° 0.4 mm 2 mps 760 mmHg 90%

    27 October, Sunday

    Time Temperature Precipitation Wind Pressure Humidity
    00:00 +5°C° 0.4 mm 2 mps 760 mmHg 91%
    01:00 +4°C° 1.3 mm 3 mps 760 mmHg 91%
    02:00 +4°C° 1.3 mm 4 mps 759 mmHg 92%
    03:00 +4°C° 1.3 mm 4 mps 759 mmHg 92%
    04:00 +3°C° 2.2 mm 5 mps 759 mmHg 93%
    05:00 +3°C° 2.2 mm 5 mps 758 mmHg 93%
    06:00 +3°C° 2.2 mm 5 mps 758 mmHg 94%
    07:00 +3°C° 1.5 mm 6 mps 758 mmHg 94%
    08:00 +3°C° 1.5 mm 6 mps 758 mmHg 94%
    09:00 +3°C° 1.5 mm 6 mps 757 mmHg 94%
    10:00 +4°C° 1.4 mm 6 mps 757 mmHg 95%
    11:00 +5°C° 1.4 mm 6 mps 757 mmHg 95%
    12:00 +5°C° 1.4 mm 6 mps 757 mmHg 96%
    13:00 +7°C° 0.7 mm 5 mps 756 mmHg 96%
    14:00 +7°C° 0.7 mm 5 mps 756 mmHg 97%
    15:00 +8°C° 0.7 mm 4 mps 755 mmHg 97%
    16:00 +8°C° 0.9 mm 4 mps 755 mmHg 97%
    17:00 +10°C° 0.9 mm 4 mps 755 mmHg 97%
    18:00 +10°C° 0.9 mm 3 mps 754 mmHg 98%
    19:00 +10°C° 1.4 mm 3 mps 754 mmHg 98%
    20:00 +10°C° 1.4 mm 3 mps 754 mmHg 98%
    21:00 +10°C° 1.4 mm 3 mps 754 mmHg 98%
    22:00 +10°C° 1.5 mm 3 mps 753 mmHg 98%
    23:00 +11°C° 1.5 mm 3 mps 753 mmHg 98%
    Show more